User: anonymous   Login
Location: Tyler Bend Campground
(35.9875°N, 92.7606°W)
Time: 02:39:33
(UTC-05:00)
Language:

CZ-2C R/B - Orbit

View from above orbital plane
View from above orbital plane
View from above satellite
View from above satellite

Ground track
Ground track

The orbit data is extracted from the following two-line orbital elements,

1 36089U 09061B   16149.57165956  .00000006  00000-0  12633-4 0  9992
2 36089  98.0518 162.5425 0082807 149.4470 323.4405 14.49578146345987
Epoch (UTC): 28 May 2016 13:43:11
Eccentricity: 0.0082807
inclination: 98.0518°
perigee height: 668 km
apogee height: 786 km
right ascension of ascending node: 162.5425°
argument of perigee: 149.4470°
revolutions per day: 14.49578146
mean anomaly at epoch: 323.4405°
orbit number at epoch: 34598

The dashed part of the orbit path shows where the satellite is in the earth's shadow,  

DLR